SCP
0 0 0 0 0 0 0 0 0 0 0 0 0 0 0 0 0 0 0 0 0 0 0 0 0 0 0 0 0 0 0 0 0 0 0 0 0 0 0 0 0 0 0 0
0 0 0 0 0 0 0 0 0 0 0 0 0 0 0 0 0 0 0 0 0 0 0 0 0 0 0 0 0 0 0 0 0 0 0 0 0 0 0 0 0 0 0 0
0 0 0 0 0 0 0 0 0 0 0 0 0 0 0 0 0 0 0 0 0 0 0 0 0 0 0 0 0 0 0 0 0 0 0 0 0 0 0 0 0 0 0 0
0 0 0 0 0 0 0 0 0 0 0 0 0 0 0 0 0 0 0 0 0 0 0 0 0 0 0 0 0 0 0 0 0 0 0 0 0 0 0 0 0 0 0 0
0 0 0 0 0 0 0 0 0 0 0 0 0 0 0 0 0 0 0 0 0 0 0 0 0 0 0 0 0 0 0 0 0 0 0 0 0 0 0 0 0 0 0 0
0 0 0 0 0 0 0 0 0 0 0 0 0 0 0 0 0 0 0 0 0 0 0 0 0 0 0 0 0 0 0 0 0 0 0 0 0 0 0 0 0 0 0 0
0 0 0 0 0 0 0 0 0 0 0 0 0 0 0 0 0 0 0 0 0 0 0 0 0 0 0 0 0 0 0 0 0 0 0 0 0 0 0 0 0 0 0 0
0 0 0 0 0 0 0 0 0 0 0 0 0 0 0 0 0 0 0 0 0 0 0 0 0 0 0 0 0 0 0 0 0 0 0 0 0 0 0 0 0 0 0 0
0 0 0 0 0 0 0 0 0 0 0 0 0 0 0 0 0 0 0 0 0 0 0 0 0 0 0 0 0 0 0 0 0 0 0 0 0 0 0 0 0 0 0 0
0 0 0 0 0 0 0 0 0 0 0 0 0 0 0 0 0 0 0 0 0 0 0 0 0 0 0 0 0 0 0 0 0 0 0 0 0 0 0 0 0 0 0 0
0 0 0 0 0 0 0 0 0 0 0 0 0 0 0 0 0 0 0 0 0 0 0 0 0 0 0 0 0 0 0 0 0 0 0 0 0 0 0 0 0 0 0 0
0 0 0 0 0 0 0 0 0 0 0 0 0 0 0 0 0 0 0 0 0 0 0 0 0 0 0 0 0 0 0 0 0 0 0 0 0 0 0 0 0 0 0 0
0 0 0 0 0 0 0 0 0 0 0 0 0 0 0 0 0 0 0 0 0 0 0 0 0 0 0 0 0 0 0 0 0 0 0 0 0 0 0 0 0 0 0 0
0 0 0 0 0 0 0 0 0 0 0 0 0 0 0 0 0 0 0 0 0 0 0 0 0 0 0 0 0 0 0 0 0 0 0 0 0 0 0 0 0 0 0 0
0 0 0 0 0 0 0 0 0 0 0 0 0 0 0 0 0 0 0 0 0 0 0 0 0 0 0 0 0 0 0 0 0 0 0 0 0 0 0 0 0 0 0 0
0 0 0 0 0 0 0 0 0 0 0 0 0 0 0 0 0 0 0 0 0 0 0 0 0 0 0 0 0 0 0 0 0 0 0 0 0 0 0 0 0 0 0 0
0 0 0 0 0 0 0 0 0 0 0 0 0 0 0 0 0 0 0 0 0 0 0 0 0 0 0 0 0 0 0 0 0 0 0 0 0 0 0 0 0 0 0 0
0 0 0 0 0 0 0 0 0 0 0 0 0 0 0 0 0 0 0 0 0 0 0 0 0 0 0 0 0 0 0 0 0 0 0 0 0 0 0 0 0 0 0 0
0 0 0 0 0 0 0 0 -0 -0 -0 0 0 0 0 0 0 0 0 0 0 0 0 0 0 0 0 0 0 0 0 0 0 0 0 0 0 0 0 0 0 0 0 0
0 0 0 0 0 0 0 0 -0 0 0 0 0 0 0 0 0 0 0 0 0 0 0 0 0 0 0 0 0 0 0 0 0 0 0 0 0 0 0 0 0 0 0 0
0 0 0 0 0 0 0 0 0 0 0 0 0 0 -0 0 0 0 0 0 0 0 0 0 0 0 0 0 0 0 0 0 0 0 0 0 0 0 0 0 0 0 0 0
0 0 0 0 0 0 0 0 0 0 0 0 0 0 0 0 0 0 0 0 0 0 0 0 0 0 0 0 0 0 0 0 0 0 0 0 0 0 0 0 0 0 0 0
0 0 0 0 0 0 0 0 0 0 0 0 0 0 0 0 0 0 0 0 0 0 0 0 0 0 0 0 0 0 0 0 0 0 0 0 0 0 0 0 0 0 0 0
0 0 0 0 0 0 0 0 0 0 0 0 0 0 0 0 0 0 0 0 0 0 0 0 0 0 0 0 0 0 0 0 0 0 0 0 0 0 0 0 0 0 0 0
0 0 0 0 0 0 0 0 0 0 0 0 0 0 0 0 0 0 0 0 0 0 0 0 0 0 0 0 0 0 0 0 0 0 0 0 0 0 0 0 0 0 0 0
0 0 0 0 0 0 0 0 0 0 0 0 0 0 0 0 0 0 0 0 0 0 0 0 0 0 0 0 0 0 0 0 0 0 0 0 0 0 0 0 0 0 0 0
Wind_Speed
11 12 18 21 19 8 9 9 9 8 7 9 12 14 13 10 8 10 10 11 12 16 15 13 16 16 14 14 16 17 17 15 12 10 10 10 10 8 8 9 10 11 10 11
11 21 21 13 12 10 10 11 9 5 6 8 9 15 13 12 11 11 12 13 14 13 11 12 14 15 17 18 19 18 18 17 15 13 11 8 7 6 6 6 9 11 12 12
21 13 14 12 13 16 14 15 12 6 3 4 4 9 13 12 10 11 11 12 12 15 15 14 15 18 18 19 20 18 20 19 18 14 7 5 4 3 6 8 10 12 13 13
17 9 14 16 18 18 19 12 10 8 6 5 7 8 9 11 14 16 16 14 14 14 14 14 15 16 18 21 19 19 19 19 18 16 12 13 13 14 13 10 10 10 12 13
16 16 19 22 21 18 7 9 9 9 7 5 5 7 9 7 14 18 18 18 18 16 16 15 17 18 20 19 18 18 18 18 18 17 18 17 15 13 7 7 9 11 11 13
9 9 16 13 13 12 7 7 4 4 5 13 14 10 11 10 14 10 13 16 17 16 16 15 15 15 16 15 15 15 17 18 18 19 19 19 19 15 11 12 12 11 10 11
11 10 9 9 12 12 12 10 8 10 12 13 11 12 14 10 10 13 14 14 15 15 15 14 14 14 15 15 16 16 17 19 18 19 20 20 20 18 18 16 14 12 11 12
15 15 17 13 16 16 21 18 12 10 9 5 7 15 12 9 10 10 12 12 12 12 13 14 15 15 15 16 17 17 18 19 18 19 20 19 18 15 13 15 12 13 12 13
14 13 10 13 10 15 17 18 8 4 3 4 8 8 10 7 9 11 12 11 12 12 12 13 12 13 13 14 16 18 19 18 17 18 18 17 17 16 15 14 13 10 10 9
7 7 8 10 8 10 11 11 7 9 9 8 7 9 11 9 14 13 13 13 13 11 10 10 10 10 11 12 13 14 16 18 17 17 16 14 16 17 16 13 14 13 13 11
6 6 6 11 17 20 14 17 10 8 7 8 7 11 11 14 14 15 16 14 13 12 10 9 8 8 7 7 8 10 12 13 12 13 14 14 14 14 14 14 15 14 12 12
10 6 8 12 8 13 12 16 16 14 10 8 6 12 6 11 13 14 15 13 11 10 8 7 7 6 6 6 7 8 9 10 11 11 11 13 13 12 13 15 15 14 14 13
10 9 9 7 6 10 13 14 17 11 6 6 7 13 4 6 8 9 11 10 9 7 6 5 5 6 6 6 6 7 7 8 8 8 9 10 10 11 13 13 12 12 13 12
8 8 11 15 11 13 18 20 20 15 13 12 13 15 8 7 8 8 9 9 8 7 7 6 6 6 6 6 6 6 6 6 6 6 8 9 10 10 11 10 9 10 10 11
6 7 9 9 7 9 13 19 22 21 19 16 19 21 18 11 11 10 9 8 7 7 7 8 8 7 6 6 6 6 6 6 6 6 7 8 7 7 7 7 7 7 8 9
5 4 5 9 10 11 12 18 22 23 21 17 13 20 19 8 6 7 8 8 9 9 10 9 9 8 8 8 7 7 6 6 6 6 7 5 5 5 5 4 4 5 6 6
6 5 5 9 8 8 17 24 27 25 24 23 24 28 9 10 14 14 12 11 12 12 11 10 10 10 9 9 8 8 7 5 6 6 5 5 4 4 4 3 3 4 4 4
8 6 4 4 8 17 13 14 17 22 24 23 23 21 15 14 13 11 12 13 13 11 10 10 9 9 8 7 6 6 5 5 6 5 5 5 4 4 4 4 4 4 3 3
11 8 5 5 7 7 8 10 20 21 23 24 26 24 14 8 5 10 12 12 13 12 11 9 8 7 6 6 6 6 5 5 5 5 5 5 5 5 4 4 4 3 3 3
11 9 7 5 6 10 11 8 10 12 17 17 23 25 16 10 12 17 11 10 10 8 7 6 5 4 4 4 5 7 6 5 6 5 5 4 4 5 5 4 3 2 2 2
11 10 11 9 7 9 9 4 14 15 18 13 17 20 15 18 20 11 7 8 8 7 6 5 5 4 4 4 6 7 6 6 5 4 4 4 4 4 4 3 3 3 3 2
11 8 9 7 7 10 4 8 14 9 6 3 9 12 13 16 14 7 6 7 6 5 4 5 5 4 2 4 6 6 5 4 4 5 5 4 4 3 3 4 3 3 4 3
8 7 5 8 7 3 1 2 2 4 2 2 3 5 8 10 10 8 7 6 6 6 5 4 6 5 3 2 4 6 4 4 5 5 5 4 4 3 3 4 4 3 3 3
2 1 3 4 4 3 1 2 4 4 4 4 3 2 3 5 5 5 5 5 5 4 4 4 6 6 3 2 3 3 4 4 6 6 5 4 4 3 3 3 3 3 3 3
3 2 3 4 4 4 3 4 5 5 5 5 4 3 0 2 3 3 4 4 4 4 3 4 5 5 4 3 4 3 3 4 5 5 4 4 3 4 3 3 2 2 2 2
1 2 3 4 2 4 5 5 6 5 5 5 4 4 4 2 3 3 3 3 4 5 5 5 6 6 5 4 4 3 2 3 5 5 4 3 3 3 3 3 3 4 3 3
Wind_Direction
183 195 206 204 204 201 170 177 196 204 197 189 218 233 238 234 225 228 230 227 225 225 223 211 207 204 199 197 196 196 196 193 186 188 191 193 199 196 198 199 197 197 195 193
184 213 210 198 196 202 193 197 202 219 207 199 227 240 241 233 227 225 227 227 227 230 226 213 206 202 200 199 199 198 199 196 195 198 197 198 195 199 202 200 201 201 199 197
206 208 189 182 192 204 210 207 196 189 186 214 228 261 244 243 233 235 233 229 226 223 222 215 207 204 202 202 201 200 200 199 198 194 182 175 180 190 200 206 207 207 204 203
216 202 181 191 199 199 219 207 187 179 174 220 199 254 248 230 236 234 234 232 230 227 222 216 209 205 204 205 202 202 200 200 198 192 190 190 200 208 210 207 207 205 206 207
206 189 189 201 202 193 200 172 185 192 197 224 214 237 261 222 232 233 231 231 231 228 222 217 211 208 207 205 201 201 199 200 198 196 198 200 209 215 208 200 205 208 208 210
218 191 194 202 194 183 148 142 172 195 201 231 216 218 256 212 218 228 229 230 231 227 224 222 216 209 208 204 200 199 198 201 198 199 201 205 210 210 203 205 208 210 210 212
206 205 195 165 166 173 170 167 191 203 212 229 193 213 246 214 212 214 222 230 230 226 222 221 215 209 207 202 200 199 200 203 200 201 205 208 211 211 212 212 212 209 210 213
198 204 192 183 187 187 193 190 197 200 206 218 182 222 245 219 221 223 226 230 232 228 223 220 215 210 208 205 202 200 202 206 202 203 208 211 212 213 217 217 215 213 215 216
199 214 186 190 176 172 185 203 201 165 144 190 220 253 287 239 235 232 232 233 234 231 224 222 218 212 208 205 203 201 203 207 205 206 208 211 211 213 217 216 215 217 218 215
186 204 191 181 160 193 186 172 171 193 184 213 233 228 230 211 214 221 225 227 231 230 227 222 217 212 209 206 204 203 205 207 207 206 207 210 212 214 216 214 215 216 216 212
194 203 193 179 192 188 175 187 187 189 198 193 223 244 219 205 201 209 218 222 222 222 221 219 217 211 205 201 198 200 205 208 208 208 210 212 213 214 214 216 218 218 216 212
192 198 213 211 215 195 193 193 188 196 203 198 212 256 226 205 205 205 215 220 220 219 216 214 209 199 195 198 199 201 204 208 211 209 209 214 215 213 215 219 220 216 216 214
177 190 196 206 217 197 203 198 198 198 180 186 199 251 229 207 220 220 217 220 219 216 212 207 201 201 202 203 203 204 205 210 210 205 208 213 215 215 218 220 218 215 216 215
182 204 209 213 201 188 199 201 196 193 207 211 218 241 242 207 211 219 220 220 217 214 207 204 210 213 210 206 205 206 211 207 203 202 207 214 217 217 219 218 215 215 214 215
183 221 225 241 226 201 210 206 203 205 208 210 223 231 237 210 207 211 212 212 209 213 214 213 215 216 214 212 212 209 211 203 193 198 209 219 219 218 217 216 215 213 212 215
185 221 222 238 222 211 219 211 210 215 214 220 229 241 238 211 200 213 213 205 210 215 218 219 219 218 216 213 212 208 210 202 186 198 213 214 210 211 215 216 215 214 216 215
184 183 207 231 218 210 224 208 207 213 217 214 222 234 215 192 206 212 211 210 214 215 216 216 215 214 214 211 204 205 205 186 183 199 207 203 198 202 207 202 204 214 218 215
191 180 202 218 194 222 234 211 208 216 221 217 226 235 215 210 213 216 209 208 217 217 218 219 218 218 217 209 201 194 175 172 181 192 200 196 191 197 193 187 202 214 213 212
198 185 199 208 220 245 270 211 197 204 226 218 224 232 224 212 219 241 222 213 216 216 215 215 212 209 204 199 188 167 166 169 178 196 202 196 187 190 189 195 205 203 197 207
197 190 199 209 216 224 237 220 190 189 241 226 221 229 219 182 221 240 213 207 217 217 213 205 196 187 188 194 161 157 170 173 193 202 198 184 181 185 190 191 187 178 176 191
189 198 206 214 226 251 255 198 143 183 229 224 215 224 210 206 225 235 187 197 200 202 203 189 170 170 184 166 149 162 171 190 194 167 159 162 167 172 172 163 158 156 152 152
188 193 200 194 212 242 263 159 174 215 242 214 211 216 213 222 229 220 195 193 187 187 183 168 153 151 143 144 149 162 180 178 145 143 146 149 147 145 148 149 146 146 149 152
199 196 198 204 215 244 198 205 278 335 279 258 242 233 214 217 221 213 201 190 186 182 171 155 148 140 118 122 147 163 170 143 137 136 139 139 135 134 140 146 149 146 152 159
259 274 204 238 254 260 286 340 341 342 319 304 295 276 202 201 207 200 186 176 167 156 153 143 138 138 129 97 102 133 133 134 135 138 135 134 134 130 124 124 136 145 155 163
254 254 227 240 277 303 303 340 334 339 344 346 350 352 5 155 161 166 158 155 144 126 113 117 128 129 118 94 81 76 103 128 131 131 129 129 127 132 127 118 120 137 140 156
226 227 228 244 284 278 284 320 335 341 340 340 348 2 20 69 122 120 117 112 113 115 112 111 110 111 103 92 78 58 69 123 133 131 132 132 129 128 127 122 97 79 92 105